Location: Rokycany
(49.7330°N, 13.6000°E)
Time: 10:02:33
(UTC+02:00)

ISS - Visible Passes

Search period start: 24 May 2019 00:00
Search period end: 03 June 2019 00:00
Orbit: 408 x 418 km, 51.6° (Epoch: 24 May)

Date Brightness Start Highest point End Pass type
(mag) Time Alt. Az. Time Alt. Az. Time Alt. Az.
24 May -2.9 01:06:06 10° WNW 01:08:22 37° W 01:08:22 37° W visible
24 May -3.2 22:39:51 10° W 22:43:10 60° N 22:46:30 10° E visible
25 May -3.9 00:16:37 10° WNW 00:19:58 82° SSW 00:20:19 69° SE visible
25 May -3.3 21:50:18 10° W 21:53:37 62° N 21:56:57 10° ENE visible
25 May -3.7 23:27:07 10° WNW 23:30:28 79° NNE 23:32:18 25° E visible
26 May -1.7 01:03:57 10° W 01:05:06 18° W 01:05:06 18° W visible
26 May -3.4 22:37:36 10° WNW 22:40:56 66° N 22:44:16 10° E visible
27 May -3.2 00:14:20 10° WNW 00:17:08 43° SW 00:17:08 43° SW visible
27 May -3.2 21:48:02 10° WNW 21:51:21 61° N 21:54:41 10° E visible
27 May -3.8 23:24:46 10° WNW 23:28:07 67° SSW 23:29:11 38° SE visible
28 May -3.8 22:35:14 10° WNW 22:38:36 89° SSW 22:41:14 15° ESE visible
29 May -2.0 00:12:13 10° W 00:14:03 21° WSW 00:14:03 21° WSW visible
29 May -3.6 21:45:42 10° WNW 21:49:02 74° NNE 21:52:23 10° E visible
29 May -3.0 23:22:29 10° W 23:25:35 35° SSW 23:26:09 32° S visible
30 May -3.5 22:32:51 10° WNW 22:36:07 52° SSW 22:38:16 19° SE visible
31 May -1.1 00:10:59 10° WSW 00:11:04 10° WSW 00:11:04 10° WSW visible
31 May -3.7 21:43:16 10° WNW 21:46:36 73° SSW 21:49:56 10° ESE visible
31 May -1.9 23:20:30 10° W 23:22:52 18° SW 23:23:12 18° SSW visible
01 Jun -2.4 22:30:35 10° W 22:33:28 27° SW 22:35:22 16° SSE visible
